TimeEST,TemperatureF,Dew PointF,Humidity,Sea Level PressureIn,VisibilityMPH,Wind Direction,Wind SpeedMPH,Gust SpeedMPH,PrecipitationIn,Events,Conditions,WindDirDegrees,DateUTC
12:00 AM,-37.1,-44.5,67,30.51,-9999.0,Variable,1.2,-,N/A,,Unknown,0,2013-12-22 05:00:00
1:00 AM,-39,-47,44,30.50,,Calm,Calm,,,,,,2013-12-22 06:00:00
1:00 AM,-39.3,-47.2,64,30.50,-9999.0,Variable,2.3,-,N/A,,Unknown,0,2013-12-22 06:00:00
2:00 AM,-40.2,-47.9,65,30.48,-9999.0,Calm,Calm,-,N/A,,Unknown,0,2013-12-22 07:00:00
3:00 AM,-40.0,-47.6,66,30.50,-9999.0,Calm,Calm,-,N/A,,Unknown,0,2013-12-22 08:00:00
4:00 AM,-40.5,-48.5,64,30.51,-9999.0,Variable,2.3,-,N/A,,Unknown,0,2013-12-22 09:00:00
5:00 AM,-42.5,-50.3,65,30.51,-9999.0,Calm,Calm,-,N/A,,Unknown,0,2013-12-22 10:00:00
6:00 AM,-41.8,-49.7,64,30.53,-9999.0,Variable,1.2,-,N/A,,Unknown,0,2013-12-22 11:00:00
7:00 AM,-43,-50,46,30.55,,Calm,Calm,,,,,,2013-12-22 12:00:00
7:00 AM,-42.5,-50.4,64,30.55,-9999.0,Variable,1.2,-,N/A,,Unknown,0,2013-12-22 12:00:00
8:00 AM,-42.2,-50.1,64,30.54,-9999.0,Variable,1.2,-,N/A,,Unknown,0,2013-12-22 13:00:00
9:00 AM,-43.8,-52.1,62,30.55,-9999.0,Variable,1.2,-,N/A,,Unknown,0,2013-12-22 14:00:00
10:00 AM,-42.2,-50.3,63,30.56,-9999.0,Calm,Calm,-,N/A,,Unknown,0,2013-12-22 15:00:00
11:00 AM,-34.1,-41.1,68,30.56,-9999.0,Calm,Calm,-,N/A,,Unknown,0,2013-12-22 16:00:00
12:00 PM,-26.3,-33.0,71,30.54,-9999.0,Calm,Calm,-,N/A,,Unknown,0,2013-12-22 17:00:00
1:00 PM,-25,-31,60,30.52,,Calm,Calm,,,,,,2013-12-22 18:00:00
1:00 PM,-24.5,-30.8,72,30.52,-9999.0,Calm,Calm,-,N/A,,Unknown,0,2013-12-22 18:00:00
2:00 PM,-19.5,-25.2,75,30.52,-9999.0,Calm,Calm,-,N/A,,Unknown,0,2013-12-22 19:00:00
3:00 PM,-17.3,-23.1,75,30.53,-9999.0,Variable,1.2,-,N/A,,Unknown,0,2013-12-22 20:00:00
4:00 PM,-17.1,-23.1,74,30.54,-9999.0,Calm,Calm,-,N/A,,Unknown,0,2013-12-22 21:00:00
5:00 PM,-21.6,-27.6,74,30.56,-9999.0,Calm,Calm,-,N/A,,Unknown,0,2013-12-22 22:00:00
6:00 PM,-25.4,-31.2,74,30.57,-9999.0,Calm,Calm,-,N/A,,Unknown,0,2013-12-22 23:00:00
7:00 PM,-27,-33,57,30.58,,East,1.2,,,,,100,2013-12-23 00:00:00
7:00 PM,-27.0,-33.2,73,30.58,-9999.0,East,1.2,-,N/A,,Unknown,90,2013-12-23 00:00:00
8:00 PM,-28.3,-34.6,72,30.60,-9999.0,Calm,Calm,-,N/A,,Unknown,0,2013-12-23 01:00:00
9:00 PM,-30.3,-36.6,72,30.61,-9999.0,Calm,Calm,-,N/A,,Unknown,0,2013-12-23 02:00:00
10:00 PM,-31.4,-37.8,71,30.61,-9999.0,Calm,Calm,-,N/A,,Unknown,0,2013-12-23 03:00:00
11:00 PM,-34.4,-41.3,69,30.60,-9999.0,Variable,1.2,-,N/A,,Unknown,0,2013-12-23 04:00:00